Regional Weather Roundup
Issued by NWS

Home | Current Version | Previous Version | Text Only | Print | Product List | Glossary Off
Versions: 1 2 3 4 5 6 7 8 9 10 11 12 13 14 15 16 17 18 19 20 21 22 23 24 25 26 27 28 29 30 31 32 33 34 35 36 37 38 39 40 41 42 43 44 45 46 47 48 49 50

000
ASUS43 KFSD 202002
RWRSD

WEATHER ROUNDUP FOR SOUTH DAKOTA
NATIONAL WEATHER SERVICE SIOUX FALLS SD
300 PM CDT FRI APR 20 2018

NOTE: "FAIR" INDICATES FEW OR NO CLOUDS BELOW 12,000 FEET WITH NO
SIGNIFICANT WEATHER AND/OR OBSTRUCTIONS TO VISIBILITY.


SDZ001>005-009-010-012>017-202100-
NORTHWEST AND NORTH CENTRAL SOUTH DAKOTA

CITY           SKY/WX    TMP DP  RH WIND       PRES   REMARKS
BUFFALO          N/A     56  30  37 SE28G33   30.05F
FAITH            N/A     50  33  52 SE22G30   30.18S
MOBRIDGE       PTSUNNY   55  33  43 SE16      30.24F
$$

SDZ012>016-024>037-041>051-057-063-072>074-202100-
SOUTHWEST AND SOUTH CENTRAL SOUTH DAKOTA

CITY           SKY/WX    TMP DP  RH WIND       PRES   REMARKS
RAPID CTY ARPT CLOUDY    48  37  65 S18G25    30.15R
PIERRE         CLOUDY    53  34  48 SE16      30.24F
CUSTER         CLOUDY    39  30  70 SE8G20    30.11F
ELLSWORTH AFB  CLOUDY    50  38  64 S21G29    30.13R
PHILIP         CLOUDY    53  31  42 S14       30.21S
PINE RIDGE     LGT RAIN  43  39  86 SE9       30.17R
SPEARFISH      FAIR      54  32  43 SE17      30.07F
WINNER         CLOUDY    49  34  56 SE9       30.25S
$$

SDZ004>011-016>023-039-040-202100-
NORTHEAST SOUTH DAKOTA

CITY           SKY/WX    TMP DP  RH WIND       PRES   REMARKS
ABERDEEN       PTSUNNY   56  37  49 S12       30.34F
WATERTOWN      CLOUDY    50  37  61 SE12      30.36S
BROOKINGS      CLOUDY    47  36  65 S10       30.37F
SISSETON         N/A     53  38  56 SE10      30.37S
$$

SDZ017-020-022-023-036>040-048>070-202100-
SOUTHEAST SOUTH DAKOTA

CITY           SKY/WX    TMP DP  RH WIND       PRES   REMARKS
SIOUX FALLS    CLOUDY    49  35  58 S8        30.36F
HURON          CLOUDY    46  34  62 SE10      30.34F
CHAMBERLAIN    CLOUDY    49  39  67 SE10G16   30.29S
MITCHELL       CLOUDY    45  37  73 E13       30.33F
YANKTON        CLOUDY    55  34  45 SE17G23   30.31F
$$

ABBREVIATIONS USED IN REMARKS
   TC - TEMPERATURE IN CELSIUS
  WCI - WIND CHILL INDEX
   HX - HEAT INDEX
  VSB - VISIBILITY




USA.gov is the U.S. government's official web portal to all federal, state and local government web resources and services.